[[{"header":{"parameterUnit":"m.s-1","parameterCategory":1,"la1":30.2991,"la2":30.254,"lo1":-89.0895,"lo2":-89.0444,"dy":0.0017,"dx":0.0017,"nx":28,"ny":28,"refTime":"2024-05-26T03:00:00:Z","depth":0,"parameterNumber":2,"parameterNumberName":"U-component_of_WINDS"},"data":[0,0,0,0,0,0,0,0,0,0,0,0,0,0,0,0,0,0,0,0,0,0,0,0,0,0,0,0,0,0,0,0,0,0,0,0,0,0,0,0,0,0,0,0,0,0,0,0,0,0,0,0,0,0,0,0,0,0,2.8674,2.8675,0,2.8707,2.8707,2.8708,2.8617,2.8614,2.8611,2.8609,2.8644,2.8647,2.8651,0,0,0,0,0,0,0,0,0,0,0,0,0,2.8533,2.8536,2.8674,2.8675,2.8675,2.8707,2.8707,2.8708,2.8617,2.8614,2.8611,2.8607,2.8643,2.8647,2.8651,0,0,0,0,0,0,0,0,0,0,0,0,0,2.8583,2.8537,2.8674,2.8634,2.863,2.8707,2.8707,2.8708,2.8618,2.8614,2.861,2.8606,2.8641,2.8647,2.8652,2.8769,0,0,2.8668,2.867,0,0,0,0,0,0,0,0,2.858,2.8588,2.8639,2.8637,2.8633,2.8653,2.867,2.8729,2.8619,2.8623,2.8609,2.8604,2.8651,2.8655,2.867,2.8771,2.8772,2.8669,2.8672,2.8674,2.8676,0,0,0,0,0,0,0,2.8577,2.8587,2.8687,2.864,2.8636,2.8614,2.8616,2.8681,2.866,2.8622,2.8616,2.8621,2.8648,2.8665,2.8671,2.8773,2.8668,2.8673,2.8677,2.8679,2.8968,2.8972,0,0,0,0,0,0,2.8579,2.8584,2.8686,2.8688,2.8596,2.862,2.8623,2.8651,2.8659,2.8656,2.8624,2.8616,2.8658,2.8664,2.8671,2.8807,2.8674,2.8679,2.8682,2.8964,2.8969,2.8974,0,0,0,0,0,0,2.8576,2.8589,2.8685,2.8634,2.8645,2.8627,2.866,2.8654,2.8671,2.8661,2.8657,2.8646,2.8655,2.8664,2.8745,2.8807,2.8682,2.8686,2.8958,2.8965,2.8971,2.9081,0,0,0,0,0,0,2.8573,2.8588,2.8633,2.8636,2.8648,2.8758,2.8664,2.8658,2.8681,2.867,2.868,2.8677,2.8653,2.8737,2.875,2.8812,2.8691,2.8953,2.8961,2.8969,2.9072,2.909,2.9107,0,0,0,0,0,2.8568,2.8664,2.8636,2.8649,2.8703,2.8762,2.8769,2.8738,2.8686,2.873,2.8723,2.8677,2.8798,2.8746,2.876,2.8825,2.8948,2.8959,2.8969,2.9064,2.9087,2.9106,0,0,0,0,0,0,2.867,2.8663,2.8633,2.8732,2.8748,2.8746,2.8802,2.8764,2.8795,2.8785,2.8745,2.8748,2.8836,2.8838,2.8781,2.8937,2.8864,2.8878,2.8932,2.8954,2.8971,2.8968,2.8695,0,0,0,0,0,2.8704,2.8752,2.8743,2.8832,2.8842,2.8821,2.8845,2.8819,2.8835,2.8841,2.884,2.8857,2.8898,2.8926,2.8964,2.9072,2.9071,2.9123,2.914,2.9155,2.9166,2.9221,2.9243,2.9007,2.9007,2.9007,0,0,2.8775,2.8777,2.881,2.8853,2.8862,2.8912,2.8827,2.8884,2.892,2.885,2.8925,2.8925,2.8941,2.9035,2.9076,2.904,2.9231,2.9167,2.9179,2.9183,2.9233,2.9256,2.9275,2.9014,2.9013,2.9011,0,0,2.8929,2.8936,2.9009,2.902,2.9034,2.9019,2.9037,2.9041,2.9037,2.9112,2.906,2.9102,2.9175,2.9188,2.9204,2.936,2.9318,2.9374,2.9465,2.9519,2.9537,2.9553,2.9607,2.9627,2.9386,2.9386,2.9386,0,2.9015,2.9088,2.9052,2.9112,2.9131,2.9069,2.9142,2.9154,2.9181,2.9196,2.9154,2.9242,2.9249,2.9344,2.9381,2.9397,2.9415,2.9372,2.9537,2.9553,2.9568,2.9618,2.9639,2.9392,2.9392,2.9391,2.939,0,2.9192,2.9243,2.9301,2.9326,2.9352,2.9419,2.9392,2.9423,2.9395,2.9384,2.946,2.9465,2.9502,2.9523,2.9497,2.9613,2.959,2.9544,2.947,2.9597,2.9644,2.9663,2.9402,2.9399,2.9397,2.9396,0,0,2.9412,2.9415,2.9437,2.9446,2.9457,2.9495,2.9558,2.9593,2.9619,2.9639,2.969,2.9752,2.9708,2.9726,2.9701,2.9748,2.9869,2.9696,2.9696,2.9726,2.9995,3.0028,3.0051,2.9841,2.9845,2.9848,2.9992,0,2.9562,2.9669,2.9637,2.9744,2.979,2.973,2.9784,2.9796,2.9788,2.9825,2.9815,2.9859,2.9799,2.9809,2.9853,2.9845,2.9922,2.9834,2.9887,2.9889,2.9883,3.0076,3.0112,3.0248,3.0011,3.0014,3.0016,0,2.9751,2.9777,2.9888,2.9888,2.9906,2.9956,2.9983,3.002,3.0032,3.0022,3.0041,3.0005,3.0066,2.9993,3.0075,3.0016,3.0035,3.0034,3.0039,3.0041,2.996,3.0082,3.0291,3.0311,3.0045,3.0043,3.0041,0,2.9898,2.996,3.0034,3.0044,3.0047,3.0083,3.0086,3.0093,3.0115,3.014,3.0153,3.0185,3.0202,3.0227,3.0201,3.015,3.0286,3.0211,3.0279,3.0279,3.0309,3.0308,3.0523,3.0325,3.0325,3.0324,3.0324,0,3.0067,3.0137,3.0099,3.0145,3.022,3.0184,3.026,3.0256,3.0263,3.0305,3.0257,3.0298,3.0261,3.0299,3.0279,3.0349,3.0357,3.035,3.0344,3.0354,3.0354,3.0365,3.0354,3.033,3.0329,3.0328,3.0327,0,3.0244,3.0221,3.0297,3.0293,3.0293,3.0349,3.0345,3.0386,3.0373,3.0428,3.0439,3.0418,3.046,3.0436,3.048,3.0466,3.0556,3.0538,3.0552,3.0546,3.0614,3.0607,3.0843,3.0871,3.0657,3.0659,3.0661,0,3.0353,3.0404,3.0405,3.0429,3.0435,3.0476,3.0497,3.0463,3.0487,3.0503,3.0542,3.0579,3.0607,3.0677,3.0666,3.0698,3.0679,3.0759,3.0684,3.0691,3.0678,3.0674,3.0678,3.0774,3.0777,3.0779,3.078,0,3.0548,3.0533,3.0566,3.0594,3.062,3.0641,3.0658,3.0681,3.0646,3.0676,3.0717,3.0739,3.0782,3.0819,3.0846,3.0848,3.0809,3.0804,3.0821,3.0831,3.0836,3.0832,3.0591,3.0799,3.0797,3.0796,3.0795,3.0794,3.0692,3.0734,3.074,3.0777,3.0786,3.0802,3.084,3.0831,3.0864,3.0896,3.0873,3.0922,3.093,3.0962,3.097,3.1007,3.0974,3.1,3.1006,3.1012,3.102,3.0832,3.1012,3.1011,3.1011,3.101,3.101,0,3.0882,3.0883,3.0917,3.0941,3.097,3.0929,3.0945,3.0972,3.1015,3.1026,3.1053,3.11,3.1135,3.1126,3.1158,3.1189,3.1171,3.1198,3.1195,3.1195,3.1048,3.103,3.1212,3.1212,3.1212,3.1211,3.1211,3.1211,3.0984,3.1053,3.1039,3.1111,3.1111,3.1157,3.1169,3.1183,3.1191,3.1245,3.1274,3.1267,3.127,3.1301,3.1331,3.1327,3.134,3.1374,3.1363,3.1226,3.1206,3.1187,3.1169,3.1377,3.1377,3.1507,3.1508,3.1509]},{"header":{"parameterUnit":"m.s-1","parameterCategory":1,"la1":30.2991,"la2":30.254,"lo1":-89.0895,"lo2":-89.0444,"dy":0.0017,"dx":0.0017,"nx":28,"ny":28,"refTime":"2024-05-26T03:00:00:Z","depth":0,"parameterNumber":3,"parameterNumberName":"V-component_of_WINDS"},"data":[0,0,0,0,0,0,0,0,0,0,0,0,0,0,0,0,0,0,0,0,0,0,0,0,0,0,0,0,0,0,0,0,0,0,0,0,0,0,0,0,0,0,0,0,0,0,0,0,0,0,0,0,0,0,0,0,0,0,5.8363,5.8364,0,5.848,5.8481,5.8483,5.8449,5.8447,5.8445,5.8442,5.8555,5.856,5.8565,0,0,0,0,0,0,0,0,0,0,0,0,0,5.8101,5.8106,5.8363,5.8364,5.8366,5.848,5.8481,5.8483,5.845,5.8447,5.8444,5.8441,5.8553,5.8559,5.8566,0,0,0,0,0,0,0,0,0,0,0,0,0,5.8216,5.8108,5.8363,5.8363,5.8364,5.848,5.8482,5.8483,5.845,5.8447,5.8443,5.844,5.8551,5.8559,5.8566,5.8686,0,0,5.859,5.8594,0,0,0,0,0,0,0,0,5.821,5.8226,5.8362,5.8363,5.8365,5.8447,5.843,5.8551,5.8451,5.8418,5.8442,5.8438,5.8521,5.8531,5.8561,5.8691,5.8696,5.8591,5.8596,5.8599,5.8601,0,0,0,0,0,0,0,5.8202,5.8221,5.8409,5.8364,5.8366,5.8354,5.8367,5.8453,5.8488,5.842,5.8418,5.8433,5.8521,5.8553,5.8563,5.8698,5.8591,5.8598,5.8602,5.8606,5.8928,5.8931,0,0,0,0,0,0,5.8194,5.8214,5.8405,5.8413,5.8277,5.8362,5.8376,5.8424,5.8487,5.8493,5.8436,5.8431,5.8542,5.8554,5.8567,5.8709,5.8599,5.8606,5.8611,5.8924,5.8929,5.8933,0,0,0,0,0,0,5.8188,5.8211,5.8401,5.8313,5.8336,5.8371,5.8424,5.8428,5.846,5.8499,5.8504,5.8463,5.8539,5.8556,5.8656,5.8712,5.861,5.8617,5.8919,5.8925,5.8931,5.8995,0,0,0,0,0,0,5.8181,5.821,5.8258,5.8314,5.8341,5.8491,5.8428,5.8433,5.8475,5.8469,5.8525,5.8531,5.8538,5.8645,5.8664,5.8721,5.8623,5.8914,5.8922,5.8929,5.8988,5.9002,5.9014,0,0,0,0,0,5.8172,5.827,5.826,5.8284,5.8402,5.8494,5.8509,5.8518,5.8479,5.8526,5.855,5.8529,5.8703,5.8655,5.8677,5.8737,5.8911,5.892,5.8928,5.8982,5.8999,5.9014,0,0,0,0,0,0,5.8217,5.8278,5.8267,5.8388,5.8436,5.8489,5.8548,5.8536,5.8595,5.8587,5.8592,5.8605,5.8707,5.8732,5.8678,5.8854,5.8801,5.8814,5.8834,5.8851,5.8864,5.8856,5.863,0,0,0,0,0,5.8242,5.8314,5.8362,5.8463,5.8488,5.8514,5.8554,5.8557,5.8606,5.8626,5.8657,5.8704,5.8769,5.8811,5.8874,5.8991,5.9001,5.9043,5.9056,5.9067,5.9078,5.9139,5.9157,5.8961,5.8961,5.8961,0,0,5.8292,5.8334,5.8379,5.8473,5.8511,5.8583,5.8532,5.861,5.8662,5.8637,5.8734,5.8758,5.881,5.8919,5.8969,5.8943,5.9134,5.9078,5.9086,5.9092,5.915,5.9168,5.9185,5.8967,5.8966,5.8965,0,0,5.842,5.8461,5.8548,5.8587,5.8646,5.8662,5.8683,5.8737,5.8753,5.8851,5.8832,5.8893,5.9005,5.9043,5.9076,5.9216,5.9197,5.9236,5.9304,5.9364,5.9379,5.9393,5.944,5.9458,5.9247,5.9247,5.9247,0,5.8475,5.8585,5.8594,5.8674,5.8715,5.8697,5.8783,5.882,5.8895,5.8921,5.8892,5.9032,5.9065,5.9181,5.9215,5.9244,5.9265,5.9229,5.9377,5.9391,5.9403,5.9449,5.9467,5.9251,5.9251,5.925,5.925,0,5.8648,5.8724,5.8787,5.8862,5.8909,5.8992,5.9011,5.9057,5.9054,5.9073,5.917,5.921,5.9279,5.9306,5.9304,5.9421,5.9403,5.9376,5.9322,5.9426,5.9469,5.9486,5.9257,5.9255,5.9254,5.9253,0,0,5.8809,5.8887,5.891,5.8942,5.9004,5.9062,5.9142,5.9211,5.925,5.9301,5.9366,5.9461,5.9435,5.9473,5.9475,5.9527,5.9632,5.9492,5.9493,5.9515,5.976,5.978,5.98,5.962,5.9624,5.9626,5.9755,0,5.8941,5.9086,5.9095,5.9224,5.9293,5.9275,5.9345,5.9389,5.9407,5.9465,5.9485,5.9551,5.9513,5.9536,5.9587,5.9608,5.9681,5.9599,5.9678,5.9681,5.9665,5.9823,5.9844,5.9964,5.9772,5.9775,5.9777,0,5.9115,5.9174,5.931,5.9361,5.939,5.9453,5.9515,5.9572,5.962,5.9629,5.9671,5.9665,5.9743,5.9687,5.9794,5.9738,5.9771,5.9786,5.979,5.9797,5.9734,5.9832,6.0002,6.002,5.9803,5.9801,5.9799,0,5.9216,5.9329,5.9425,5.9453,5.9515,5.9559,5.9586,5.9631,5.9671,5.9724,5.975,5.9811,5.9844,5.989,5.9899,5.9858,6.0004,5.995,6.0012,6.0011,6.0043,6.004,6.022,6.0066,6.0066,6.0066,6.0065,0,5.9362,5.9446,5.9471,5.953,5.9622,5.963,5.972,5.9743,5.9783,5.9843,5.9831,5.9887,5.9896,5.9953,5.996,6.0045,6.0061,6.0068,6.0069,6.0069,6.0068,6.0089,6.0081,6.007,6.0069,6.0068,6.0067,0,5.9491,5.9511,5.9614,5.9664,5.9679,5.9744,5.9785,5.9839,5.9856,5.9932,5.9951,5.9976,6.0043,6.0056,6.0134,6.0139,6.024,6.0233,6.0225,6.0223,6.0284,6.0277,6.0482,6.0508,6.0339,6.034,6.0342,0,5.9582,5.9647,5.9703,5.9744,5.9774,5.984,5.9881,5.989,5.9932,5.999,6.0037,6.0103,6.0156,6.0263,6.0286,6.0345,6.0338,6.0406,6.0347,6.0344,6.0337,6.0332,6.0337,6.0416,6.0418,6.042,6.0421,0,5.9742,5.9748,5.9809,5.9873,5.9923,5.9973,6.002,6.0054,6.0069,6.0116,6.0186,6.0227,6.0307,6.0371,6.043,6.0454,6.0439,6.0439,6.0456,6.0457,6.0448,6.0452,6.0254,6.0435,6.0433,6.0432,6.0431,6.0431,5.9853,5.9908,5.9957,6.0024,6.0061,6.0105,6.0159,6.0182,6.0241,6.0308,6.0309,6.0384,6.0426,6.0504,6.0532,6.0588,6.0566,6.0592,6.0598,6.0603,6.0608,6.0441,6.0599,6.0598,6.0598,6.0598,6.0598,0,6.001,6.004,6.0102,6.017,6.0222,6.0205,6.0256,6.03,6.0367,6.0409,6.0462,6.0539,6.0601,6.0629,6.0689,6.0728,6.0723,6.0743,6.074,6.0745,6.0625,6.0604,6.0747,6.0747,6.0747,6.0747,6.0747,6.0747,6.0098,6.019,6.0201,6.031,6.0339,6.0414,6.0444,6.0483,6.0517,6.0605,6.0657,6.0675,6.0711,6.0773,6.0827,6.0834,6.0855,6.0879,6.0882,6.0769,6.0754,6.0739,6.0719,6.0884,6.0884,6.0997,6.0998,6.0999]}]]